Simultaneous Nadir Overpasses (SNOs) Predictions

Prediction of SNOs between NOAA-19 and TERRA Satellite Orbit:

Table of predicted SNOs for the next 14.0 days since TLE Epoch: 10/23/2021
Index Date (NOAA-19) Time (NOAA-19) Lat,Lon (NOAA-19) SZA (NOAA-19 ) Date (TERRA) Time (TERRA) Lat,Lon (TERRA) SZA (TERRA ) Distance(km) Time Diff (sec)
1 10/23/2021 18:45:04 80.49, -66.69 94.15 10/23/2021 18:45:41 80.49, -66.62 94.17 1.38 37
2 10/23/2021 19:35:59 -80.48, 100.93 85.82 10/23/2021 19:35:08 -80.49, 100.98 85.83 1.44 51
3 10/26/2021 00:18:12 -80.59, 27.99 85.21 10/26/2021 00:19:24 -80.43, 29.30 85.18 29.93 72
4 10/26/2021 01:09:09 80.48,-162.45 94.95 10/26/2021 01:08:48 80.49,-162.42 94.95 0.85 21
5 10/28/2021 06:42:12 -80.50, -65.88 84.31 10/28/2021 06:42:29 -80.49, -65.89 84.31 1.15 17
6 10/30/2021 12:15:20 80.49, 31.02 96.45 10/30/2021 12:16:08 80.51, 30.95 96.48 2.63 48
7 10/30/2021 13:06:18 -80.50,-161.85 83.55 10/30/2021 13:05:36 -80.48,-161.72 83.57 3.04 42
8 11/01/2021 18:39:25 80.49, -64.82 97.19 11/01/2021 18:39:15 80.50, -64.94 97.19 2.71 10
9 11/04/2021 00:12:30 -80.51, 31.58 82.14 11/04/2021 00:12:56 -80.50, 31.56 82.14 1.27 26



Historial Predications of SNOs between NOAA-19 and TERRA
